GW6995 Weather Reports


Display with metric or nautical units.
time (UTC)temp
F
wind
direction
speed
MPH
gust
MPH
rain 1hr
in
rain 24hr
in
rain mn
in
humidity
%
barometer
mb
20260510192307 75 119 4.0 4.0 0.00 0.01 0.01 45 1013.0
20260510191804 74 190 2.0 7.0 0.00 0.01 0.01 43 1013.0
20260510191259 75 124 2.0 4.0 0.00 0.01 0.01 44 1012.9
20260510190758 75 159 3.0 3.0 0.00 0.01 0.01 43 1012.9
20260510190254 75 207 4.0 6.0 0.00 0.01 0.01 45 1013.2
20260510185750 75 335 1.0 3.0 0.00 0.01 0.01 53 1013.2
20260510185250 75 141 2.0 6.0 0.00 0.01 0.01 53 1013.2
20260510184746 77 64 1.0 3.0 0.00 0.01 0.01 51 1013.4
20260510184243 77 210 2.0 4.0 0.00 0.01 0.01 59 1013.2
20260510183743 76 182 3.0 3.0 0.00 0.01 0.01 57 1013.2
20260510183238 75 3 1.0 2.0 0.00 0.01 0.01 58 1013.2
20260510182734 75 263 0.0 2.0 0.00 0.01 0.01 55 1013.3
20260510182230 75 219 2.0 2.0 0.00 0.01 0.01 55 1013.2
20260510181727 74 313 0.0 1.0 0.00 0.01 0.01 57 1013.2
20260510181224 74 5 1.0 2.0 0.00 0.01 0.01 55 1013.4
20260510180720 74 0 1.0 2.0 0.00 0.01 0.01 57 1013.3
20260510180218 74 157 2.0 2.0 0.00 0.01 0.01 58 1013.2
20260510175713 76 118 2.0 6.0 0.00 0.01 0.01 57 1013.2
20260510175210 75 163 2.0 6.0 0.00 0.01 0.01 57 1013.2
20260510174707 74 333 3.0 4.0 0.00 0.01 0.01 57 1013.1
20260510174204 74 335 1.0 2.0 0.00 0.01 0.01 57 1013.2
20260510173700 74 80 1.0 2.0 0.00 0.01 0.01 59 1013.3
20260510173156 74 128 2.0 6.0 0.00 0.01 0.01 59 1013.5
20260510172652 73 273 1.0 6.0 0.00 0.01 0.01 60 1013.3
20260510172148 72 28 0.0 1.0 0.00 0.01 0.01 66 1013.2
20260510171645 71 91 2.0 2.0 0.00 0.01 0.01 62 1013.4
20260510171143 72 101 2.0 4.0 0.00 0.01 0.01 63 1013.5
20260510170639 71 89 1.0 1.0 0.00 0.01 0.01 64 1013.4
20260510170135 71 83 1.0 3.0 0.00 0.01 0.01 65 1013.4
20260510165631 71 200 3.0 3.0 0.00 0.01 0.01 65 1013.5
20260510165127 71 59 1.0 2.0 0.00 0.01 0.01 67 1013.7
20260510164625 70 135 2.0 4.0 0.00 0.01 0.01 65 1013.7
20260510164121 70 190 0.0 1.0 0.00 0.01 0.01 67 1013.6
20260510163616 70 230 2.0 3.0 0.00 0.01 0.01 66 1013.7
20260510163113 69 18 3.0 3.0 0.00 0.01 0.01 65 1013.9
20260510162608 69 319 2.0 3.0 0.00 0.01 0.01 65 1013.8
20260510162104 69 252 3.0 6.0 0.00 0.01 0.01 69 1013.8
20260510161600 69 154 1.0 3.0 0.00 0.01 0.01 69 1014.0
20260510161057 68 214 0.0 2.0 0.00 0.01 0.01 66 1013.9
20260510160554 69 121 2.0 4.0 0.00 0.01 0.01 66 1013.5
20260510160054 68 306 2.0 4.0 0.00 0.01 0.01 69 1013.7
20260510155550 68 165 2.0 7.0 0.00 0.01 0.01 68 1013.8
20260510155047 68 118 2.0 2.0 0.00 0.01 0.01 70 1013.9
20260510154542 68 348 1.0 2.0 0.00 0.01 0.01 67 1014.2
20260510154038 67 192 1.0 3.0 0.00 0.01 0.01 71 1014.3
20260510153533 67 145 1.0 2.0 0.00 0.01 0.01 70 1014.0
20260510153031 66 264 1.0 2.0 0.00 0.01 0.01 74 1014.1
20260510152527 66 89 4.0 4.0 0.00 0.01 0.01 69 1013.9
20260510152024 65 258 0.0 2.0 0.00 0.01 0.01 74 1014.1
20260510151520 66 203 2.0 2.0 0.00 0.01 0.01 70 1014.2
20260510151018 67 150 0.0 3.0 0.00 0.01 0.01 70 1014.2
20260510150513 65 168 2.0 3.0 0.00 0.01 0.01 76 1014.4
20260510150009 66 109 2.0 2.0 0.00 0.01 0.01 69 1014.3
20260510145506 66 256 1.0 3.0 0.00 0.01 0.01 74 1014.4
20260510145002 64 220 1.0 2.0 0.00 0.01 0.01 79 1014.4
20260510144459 64 183 1.0 2.0 0.00 0.01 0.01 79 1014.1
20260510143955 64 213 1.0 2.0 0.00 0.01 0.01 78 1014.4
20260510143451 62 287 1.0 2.0 0.00 0.01 0.01 79 1014.2
20260510142948 61 156 0.0 1.0 0.00 0.01 0.01 81 1014.2
20260510142444 61 132 1.0 2.0 0.00 0.01 0.01 80 1014.2
20260510141940 61 134 0.0 1.0 0.00 0.01 0.01 82 1014.4
20260510141438 60 132 0.0 0.0 0.00 0.01 0.01 81 1014.1
20260510140935 61 136 2.0 3.0 0.00 0.01 0.01 82 1014.2
20260510140431 61 153 1.0 1.0 0.00 0.01 0.01 84 1014.2
20260510135930 60 163 0.0 1.0 0.00 0.01 0.01 82 1013.9
20260510135426 60 199 2.0 2.0 0.00 0.01 0.01 83 1014.2
20260510134924 60 209 1.0 2.0 0.00 0.01 0.01 86 1014.1
20260510134420 59 82 3.0 3.0 0.00 0.01 0.01 85 1014.0
20260510133916 58 180 0.0 1.0 0.00 0.01 0.01 89 1014.0
20260510133413 58 215 2.0 3.0 0.00 0.01 0.01 89 1014.1
20260510132908 58 208 1.0 2.0 0.00 0.01 0.01 90 1014.1
20260510132407 58 91 1.0 3.0 0.00 0.01 0.01 91 1014.1
20260510131903 57 114 0.0 1.0 0.00 0.01 0.01 92 1014.0
20260510131400 57 100 2.0 2.0 0.00 0.01 0.01 92 1013.9
20260510130857 57 212 0.0 1.0 0.00 0.01 0.01 94 1013.8
20260510130354 56 208 2.0 1.0 0.00 0.01 0.01 95 1014.0
20260510125851 56 112 0.0 0.0 0.00 0.01 0.01 96 1013.7
20260510125347 56 123 0.0 1.0 0.00 0.01 0.01 96 1013.8
20260510124844 56 101 0.0 0.0 0.00 0.01 0.01 97 1013.7
20260510124340 56 101 0.0 0.0 0.00 0.01 0.01 97 1013.9
20260510123836 55 102 0.0 1.0 0.00 0.01 0.01 97 1013.8
20260510123332 55 99 0.0 1.0 0.00 0.01 0.01 97 1013.6
20260510122828 55 106 0.0 1.0 0.00 0.01 0.01 97 1013.5
20260510122324 55 114 0.0 0.0 0.00 0.01 0.01 97 1013.6
20260510121821 55 96 0.0 0.0 0.00 0.01 0.01 97 1013.3
20260510121319 55 218 0.0 0.0 0.00 0.01 0.01 97 1013.3
20260510120816 55 218 0.0 0.0 0.00 0.01 0.01 97 1013.3
20260510120312 55 218 0.0 1.0 0.00 0.01 0.01 97 1013.2
20260510115808 55 218 0.0 0.0 0.00 0.01 0.01 97 1013.2
20260510115307 55 218 0.0 0.0 0.00 0.01 0.01 98 1013.2
20260510114801 55 218 0.0 0.0 0.00 0.01 0.01 97 1013.1
20260510114259 55 209 1.0 1.0 0.00 0.01 0.01 98 1013.3
20260510113759 55 210 0.0 0.0 0.00 0.01 0.01 98 1013.2
20260510113257 55 210 0.0 0.0 0.00 0.01 0.01 98 1013.0
20260510112753 55 209 0.0 0.0 0.00 0.01 0.01 98 1013.2
20260510112250 54 209 0.0 0.0 0.00 0.01 0.01 98 1012.9
20260510111745 54 215 0.0 1.0 0.00 0.01 0.01 98 1012.6
20260510111243 54 214 1.0 2.0 0.00 0.01 0.01 98 1012.8
20260510110742 54 204 0.0 1.0 0.00 0.01 0.01 98 1012.8
20260510110241 53 145 0.0 0.0 0.00 0.01 0.01 98 1012.4
20260510105740 53 145 0.0 1.0 0.00 0.01 0.01 98 1012.5
20260510105235 53 129 0.0 1.0 0.00 0.01 0.01 98 1012.3
20260510104732 53 104 0.0 1.0 0.00 0.01 0.01 98 1012.8
20260510104230 53 53 0.0 0.0 0.00 0.01 0.01 98 1012.8
20260510103725 53 53 0.0 0.0 0.00 0.01 0.01 98 1012.5
20260510103223 53 54 0.0 0.0 0.00 0.01 0.01 98 1012.5
20260510102722 53 48 0.0 0.0 0.00 0.01 0.01 98 1012.5
20260510102218 53 48 0.0 1.0 0.00 0.01 0.01 98 1012.4
20260510101716 53 47 0.0 0.0 0.00 0.01 0.01 98 1012.5
20260510101215 52 47 0.0 0.0 0.00 0.01 0.01 98 1012.7
20260510100710 52 47 0.0 0.0 0.00 0.01 0.01 98 1012.7
20260510100208 52 47 0.0 0.0 0.00 0.01 0.01 98 1012.8
20260510095703 52 47 0.0 0.0 0.00 0.01 0.01 98 1012.6
20260510095158 52 47 0.0 1.0 0.00 0.01 0.01 98 1012.7
20260510094657 51 334 1.0 1.0 0.00 0.01 0.01 98 1012.7
20260510094153 51 337 0.0 0.0 0.00 0.01 0.01 98 1012.9
20260510093649 52 337 0.0 0.0 0.07 0.01 0.01 98 1013.0
20260510093147 51 337 0.0 0.0 0.00 0.00 0.00 98 1012.7
20260510092643 52 337 0.0 0.0 0.00 0.00 0.00 97 1012.9
20260510092139 52 337 0.0 0.0 0.00 0.00 0.00 97 1013.1
20260510091635 52 337 0.0 0.0 0.00 0.00 0.00 97 1013.2
20260510091131 53 336 0.0 0.0 0.00 0.00 0.00 97 1013.2
20260510090628 53 336 0.0 0.0 0.00 0.00 0.00 97 1013.4
20260510090124 53 336 0.0 0.0 0.00 0.00 0.00 97 1013.3
20260510085619 53 336 0.0 0.0 0.00 0.00 0.00 97 1013.0
20260510085115 53 336 0.0 0.0 0.00 0.00 0.00 97 1013.1
20260510084612 53 335 0.0 0.0 0.00 0.00 0.00 97 1013.2
20260510084108 53 13 0.0 0.0 0.00 0.00 0.00 97 1013.0
20260510083605 53 66 0.0 0.0 0.00 0.00 0.00 97 1013.0
20260510083101 53 67 1.0 1.0 0.00 0.00 0.00 97 1013.0
20260510082558 53 34 0.0 0.0 0.00 0.00 0.00 97 1013.1
20260510082053 53 34 0.0 0.0 0.00 0.00 0.00 97 1013.0
20260510081548 53 38 0.0 0.0 0.00 0.00 0.00 97 1012.9
20260510081044 53 33 1.0 1.0 0.00 0.00 0.00 97 1012.9
20260510080544 53 72 1.0 1.0 0.00 0.00 0.00 97 1012.5
20260510080041 53 73 0.0 0.0 0.00 0.00 0.00 97 1012.1
20260510075538 53 73 0.0 0.0 0.00 0.00 0.00 97 1012.0
20260510075035 53 73 0.0 0.0 0.00 0.00 0.00 97 1012.1
20260510074533 53 73 0.0 0.0 0.00 0.00 0.00 97 1012.0
20260510074028 53 73 0.0 0.0 0.00 0.00 0.00 97 1012.0
20260510073524 53 73 0.0 0.0 0.00 0.00 0.00 97 1012.2
20260510073021 53 73 0.0 0.0 0.00 0.00 0.00 97 1012.0
20260510072518 53 73 0.0 0.0 0.00 0.00 0.00 97 1012.0
20260510072013 53 73 0.0 0.0 0.00 0.00 0.00 97 1012.0
20260510071509 53 73 0.0 0.0 0.00 0.00 0.00 97 1012.2
20260510071008 53 73 0.0 0.0 0.00 0.00 0.00 97 1012.2
20260510070505 53 72 0.0 0.0 0.00 0.00 0.00 97 1012.1
20260510070000 53 72 0.0 0.0 0.00 0.00 0.00 97 1012.3
20260510065458 53 72 0.0 0.0 0.00 0.00 0.00 97 1012.3
20260510064954 53 72 0.0 0.0 0.00 0.00 0.00 97 1012.5
20260510064451 53 72 0.0 0.0 0.00 0.00 0.00 97 1012.2
20260510063947 52 72 0.0 0.0 0.00 0.00 0.00 97 1012.3
20260510063443 52 72 0.0 0.0 0.00 0.00 0.00 97 1012.2
20260510062942 52 72 0.0 0.0 0.00 0.00 0.00 97 1012.3
20260510062442 52 72 0.0 0.0 0.00 0.00 0.00 97 1012.2
20260510061937 52 72 0.0 0.0 0.00 0.00 0.00 97 1012.0
20260510061435 52 72 0.0 0.0 0.00 0.00 0.00 97 1012.1
20260510060930 51 72 0.0 0.0 0.00 0.00 0.00 97 1012.0
20260510060428 51 72 0.0 0.0 0.00 0.00 0.00 97 1012.0
20260510055924 51 72 0.0 0.0 0.00 0.00 0.00 97 1012.0
20260510055420 51 72 0.0 0.0 0.00 0.00 0.00 97 1012.1
20260510054918 51 72 0.0 0.0 0.00 0.00 0.00 97 1012.0
20260510054414 51 72 0.0 0.0 0.00 0.00 0.00 97 1011.9
20260510053909 51 72 0.0 0.0 0.00 0.00 0.00 97 1012.0
20260510053405 51 72 0.0 0.0 0.00 0.00 0.00 97 1012.1
20260510052901 51 72 0.0 0.0 0.00 0.00 0.00 97 1012.1
20260510052357 51 72 0.0 0.0 0.00 0.00 0.00 97 1012.1
20260510051853 50 72 0.0 0.0 0.00 0.00 0.00 97 1012.1
20260510051349 50 72 0.0 0.0 0.00 0.00 0.00 97 1012.1
20260510050846 50 72 0.0 1.0 0.00 0.00 0.00 97 1012.2
20260510050343 49 72 0.0 0.0 0.00 0.00 0.00 97 1012.3
20260510045840 49 72 0.0 0.0 0.00 0.00 0.00 97 1012.2
20260510045337 49 72 0.0 0.0 0.00 0.00 0.00 97 1012.3
20260510044834 49 72 0.0 0.0 0.00 0.00 0.00 97 1012.1
20260510044331 49 72 0.0 0.0 0.00 0.00 0.00 97 1012.1
20260510043827 48 72 0.0 0.0 0.00 0.00 0.00 97 1012.0
20260510043323 48 72 0.0 0.0 0.00 0.00 0.00 97 1012.2
20260510042822 48 72 0.0 0.0 0.00 0.00 0.00 97 1012.1
20260510042317 48 72 0.0 0.0 0.00 0.00 0.00 97 1012.2
20260510041814 48 72 0.0 0.0 0.00 0.00 0.00 97 1012.2
20260510041311 48 72 0.0 0.0 0.00 0.00 0.00 97 1012.1
20260510040808 48 72 0.0 0.0 0.00 0.00 0.00 97 1012.1
20260510040305 48 72 0.0 0.0 0.00 0.00 0.00 97 1012.0
20260510035800 48 72 0.0 0.0 0.00 0.27 0.27 97 1012.1
20260510035256 48 72 0.0 0.0 0.00 0.27 0.27 97 1012.1
20260510034752 48 72 0.0 0.0 0.00 0.27 0.27 97 1012.1
20260510034250 49 72 0.0 0.0 0.00 0.27 0.27 97 1011.9
20260510033746 49 72 0.0 0.0 0.00 0.27 0.27 97 1012.1
20260510033244 49 72 0.0 0.0 0.00 0.27 0.27 97 1012.0
20260510032740 48 72 0.0 0.0 0.00 0.27 0.27 97 1011.8
20260510032236 49 72 0.0 0.0 0.00 0.27 0.27 96 1011.8
20260510031732 48 72 0.0 0.0 0.00 0.27 0.27 96 1011.9
20260510031227 49 72 0.0 0.0 0.00 0.27 0.27 96 1011.9
20260510030727 49 72 0.0 0.0 0.00 0.27 0.27 96 1011.9
20260510030225 49 72 0.0 0.0 0.00 0.27 0.27 96 1012.0
20260510025722 50 72 0.0 0.0 0.00 0.27 0.27 96 1011.9
20260510025219 49 72 0.0 0.0 0.00 0.27 0.27 96 1011.8
20260510024716 49 72 0.0 0.0 0.00 0.27 0.27 96 1012.0
20260510024213 49 72 0.0 0.0 0.00 0.27 0.27 96 1011.9
20260510023708 50 72 0.0 0.0 0.00 0.27 0.27 96 1011.9
20260510023205 50 72 0.0 0.0 0.00 0.27 0.27 96 1012.0
20260510022701 50 72 0.0 0.0 0.00 0.27 0.27 96 1012.1
20260510022156 50 72 0.0 0.0 0.00 0.27 0.27 96 1012.0
20260510021652 50 72 0.0 0.0 0.00 0.27 0.27 96 1011.9
20260510021149 51 72 0.0 0.0 0.00 0.27 0.27 96 1012.0
20260510020644 51 72 0.0 0.0 0.00 0.27 0.27 96 1011.9
20260510020139 51 72 0.0 0.0 0.00 0.27 0.27 96 1011.9
20260510015635 51 72 0.0 0.0 0.00 0.27 0.27 96 1011.8
20260510015132 51 72 0.0 0.0 0.00 0.27 0.27 96 1011.8
20260510014627 51 72 0.0 0.0 0.00 0.27 0.27 96 1011.9
20260510014125 51 72 0.0 0.0 0.00 0.27 0.27 96 1011.9
20260510013625 51 72 0.0 0.0 0.00 0.27 0.27 95 1012.0
20260510013121 52 72 0.0 0.0 0.00 0.27 0.27 95 1011.7
20260510012620 52 72 0.0 0.0 0.00 0.27 0.27 96 1012.0
20260510012117 51 72 0.0 0.0 0.00 0.27 0.27 95 1011.7
20260510011616 52 72 0.0 0.0 0.00 0.27 0.27 95 1011.8
20260510011112 52 72 0.0 0.0 0.00 0.27 0.27 95 1011.5
20260510010609 53 72 0.0 0.0 0.00 0.27 0.27 95 1011.4
20260510010107 53 72 0.0 0.0 0.00 0.27 0.27 95 1011.4
20260510005601 53 72 0.0 0.0 0.00 0.27 0.27 95 1011.3
20260510005059 53 72 0.0 0.0 0.00 0.27 0.27 95 1011.5
20260510004557 53 72 0.0 0.0 0.00 0.27 0.27 94 1011.2
20260510004055 53 72 0.0 0.0 0.00 0.27 0.27 94 1011.2
20260510003552 54 72 0.0 0.0 0.00 0.27 0.27 94 1011.5
20260510003047 54 72 0.0 0.0 0.00 0.27 0.27 94 1011.3
20260510002542 54 72 0.0 0.0 0.00 0.27 0.27 94 1011.3
20260510002040 54 72 0.0 0.0 0.00 0.27 0.27 94 1011.2
20260510001537 55 72 0.0 0.0 0.00 0.27 0.27 93 1011.5
20260510001036 55 72 0.0 0.0 0.00 0.27 0.27 93 1011.2
20260510000530 55 72 0.0 0.0 0.00 0.27 0.27 93 1011.2
20260510000027 55 72 0.0 0.0 0.00 0.27 0.27 93 1011.1
20260509235524 55 72 0.0 1.0 0.00 0.27 0.27 92 1011.1
20260509235021 56 69 0.0 1.0 0.00 0.27 0.27 92 1010.9
20260509234517 56 70 0.0 0.0 0.00 0.27 0.27 92 1010.9
20260509234015 56 62 0.0 1.0 0.00 0.27 0.27 92 1010.8
20260509233512 56 189 0.0 1.0 0.00 0.27 0.27 91 1010.8
20260509233009 57 190 0.0 0.0 0.00 0.27 0.27 91 1010.9
20260509232506 57 193 0.0 0.0 0.00 0.27 0.27 91 1011.0
20260509232002 57 193 0.0 0.0 0.00 0.27 0.27 91 1010.9
20260509231459 56 193 0.0 0.0 0.00 0.27 0.27 91 1011.1
20260509230957 56 178 0.0 0.0 0.00 0.27 0.27 92 1011.1
20260509230453 56 177 0.0 0.0 0.00 0.27 0.27 92 1011.2
20260509225949 56 178 1.0 2.0 0.00 0.27 0.27 92 1011.3
20260509225446 56 143 0.0 1.0 0.00 0.27 0.27 92 1011.3
20260509224942 56 139 0.0 0.0 0.00 0.27 0.27 93 1011.5
20260509224437 56 194 1.0 1.0 0.00 0.27 0.27 93 1011.5
20260509223935 56 149 0.0 1.0 0.00 0.27 0.27 93 1011.3
20260509223431 56 171 0.0 0.0 0.00 0.27 0.27 93 1011.4
20260509222929 56 165 1.0 1.0 0.00 0.27 0.27 93 1011.5
20260509222423 56 94 0.0 0.0 0.00 0.27 0.27 93 1011.3
20260509221919 56 94 0.0 1.0 0.00 0.27 0.27 93 1011.3
20260509221416 56 94 0.0 0.0 0.00 0.27 0.27 93 1011.5
20260509220912 56 94 0.0 1.0 0.05 0.27 0.27 93 1011.6
20260509220408 56 94 0.0 0.0 0.24 0.27 0.27 93 1011.6
20260509215904 56 93 1.0 1.0 0.17 0.25 0.25 93 1011.5
20260509215400 56 93 0.0 0.0 0.12 0.23 0.23 93 1011.8
20260509214858 56 93 0.0 1.0 0.14 0.22 0.22 92 1011.7
20260509214355 56 93 0.0 0.0 0.07 0.21 0.21 93 1011.7
20260509213853 56 94 0.0 0.0 0.12 0.20 0.20 92 1011.6
20260509213353 56 94 0.0 0.0 0.24 0.20 0.20 92 1011.6
20260509212851 56 92 1.0 2.0 0.17 0.18 0.18 92 1011.6
20260509212348 57 149 0.0 1.0 0.17 0.16 0.16 92 1011.9
20260509211844 57 149 0.0 1.0 0.05 0.14 0.14 92 1011.8
20260509211340 57 205 0.0 1.0 0.07 0.13 0.13 92 1011.8
20260509210836 56 119 1.0 1.0 0.07 0.13 0.13 91 1011.3
20260509210334 57 90 1.0 1.0 0.05 0.12 0.12 91 1011.5
20260509205834 56 90 0.0 0.0 0.05 0.12 0.12 91 1011.7
20260509205329 57 90 0.0 1.0 0.00 0.11 0.11 91 1011.7
20260509204826 56 90 0.0 1.0 0.00 0.11 0.11 90 1011.7
20260509204322 57 90 0.0 1.0 0.00 0.11 0.11 90 1012.0
20260509203818 56 91 1.0 1.0 0.07 0.11 0.11 89 1011.9
20260509203315 57 91 0.0 1.0 0.07 0.11 0.11 86 1012.1
20260509202811 57 339 0.0 1.0 0.00 0.10 0.10 87 1012.2
20260509202308 58 339 0.0 0.0 0.05 0.10 0.10 88 1012.1
20260509201807 58 339 0.0 1.0 0.05 0.10 0.10 86 1012.1
20260509201304 58 332 0.0 1.0 0.00 0.09 0.09 86 1012.2
20260509200801 58 104 0.0 3.0 0.00 0.09 0.09 86 1012.0
20260509200256 58 86 0.0 1.0 0.07 0.09 0.09 87 1012.2
20260509195753 58 47 0.0 0.0 0.07 0.09 0.09 88 1012.3
20260509195248 58 47 0.0 1.0 0.00 0.08 0.08 88 1012.1
20260509194747 59 46 0.0 0.0 0.00 0.08 0.08 88 1012.0
20260509194244 59 46 0.0 0.0 0.00 0.08 0.08 88 1011.8
20260509193741 58 46 0.0 0.0 0.00 0.08 0.08 88 1011.7
20260509193240 58 46 0.0 1.0 0.00 0.08 0.08 89 1011.9
20260509192737 58 46 0.0 0.0 0.00 0.08 0.08 90 1011.7